Showing default

SDX02, 62460

Orbit data source: Space-Track

SDX02, 62460 is a payload satellite owned by ISRO (IN) in LEO that was launched on Mon, 30 Dec 2024 UTC via a PSLV launch vehicle from the Sirharikota (SRI). Payloads include a variety of satellites, spacecraft, and rockets equipped with specific instruments for various scientific and technological missions. These include communications satellites like Starlink; space stations such as the ISS; scientific satellites like the Hubble; Earth observation satellites from companies like Planet Labs, Umbra, and HawkEye 360; GPS; miniature CubeSats for education and research; and military/defense satellites.

Loading next visibility...
SDX02 details
Identifier
62460, 2024-253B
Orbit
LEO
Last TLE update16 hours ago
Origin
Flag of INISRO (IN / IND)
ManufacturerISRO
MissionOperational Civil Technology
Bus & MotorSPADEX, Unknown motor
Mass220 kg wet, ~180 kg dry
Launch date (UTC)
2024-12-30 (1 month ago)
Launch vehicle
PSLV
Launch site
Sirharikota (SRI)
Object type
Payload
Rocket body
Debris
Shape & HBRBox + 2 Pan, 2.5 m
Radar Cross Section0.901 m², Large (>1 m²)

Expand to show TLE details & history

TLE from 16 hours ago
0 SDX02
1 62460U 24253B   25035.60526191  .00028212  00000-0  87716-3 0  9996
2 62460  54.9974  97.5167 0012851  28.5401 331.6326 15.33099127  2455
Epoch: 2025-02-04T14:31Z
Definitive object data (Epoch: 2025-02-04T14:31:34.629Z)
Latitude0.00003°
Longitude104.61428°
Altitude459.932 km
Speed7.642 km/s
True Right ascension06h 30m 04s
True Declination0° 00' 00"
Sunlit
Object was in full shadow at TLE epoch
Visualization TLE readout
Latitude-10.25611°
Longitude94.47503°
Altitude462.97 km
Speed7.639 km/s
Apparent Right ascension02h 45m 49s
Apparent Declination-53° 30' 57"
Sunlit
Object is in full shadow
Visualization observer readout
Local Sidereal Time08:09:17
Azimuth220.921° SW
Elevation-26.329°
Doppler factor1
Orbital elements
Apogee altitude475.331 km
Perigee altitude457.739 km
Semi-major axis6,844.672 km
Eccentricity0.0012851
Inclination54.9974°
RAAN97.5167°
Arg. of periapsis28.5401°
True anomaly331.56253°
Mean anomaly331.6326°
Eccentric anomaly331.59758°
Mean motion3.83278 °/min
BSTAR0.00087716
Orbital period93.93 mins
Loading maneuver chart data...
Loading historical data...
Loading historical data...
Loading historical data...
Loading historical data...
Loading historical data...
Loading historical data...
Loading historical data...
Other satellites on launch #253 in the year 2024 (2024-12-30 UTC)

SDX02 Visibility forecast

Observer location: undefined°, undefined

Span
Click to sort rows by Start time (UTC) header in descending order
Start Az.
Max El. time (UTC)
Max El. Az.
Max El.
End time (UTC)
End Az.
6 mins2025-02-05 06:20:10.013Z213.032° SW2025-02-05 06:23:10.013Z139.788° SSE41.21°2025-02-05 06:26:10.013Z54.914° ENE
4 mins2025-02-05 12:56:10.013Z355.718° N2025-02-05 12:57:10.013Z25.063° NE27.572°2025-02-05 13:00:10.013Z95.673° ESE
4 mins2025-02-05 14:33:10.013Z275.19° WNW2025-02-05 14:35:10.013Z223.448° SW24.659°2025-02-05 14:37:10.013Z180.384° SSW
5 mins2025-02-06 05:49:10.013Z195.2° SSW2025-02-06 05:51:10.013Z126.371° SE35.82°2025-02-06 05:54:10.013Z59.482° ENE
|